Location: Black Swamp Observatory
(41.3920°N, 84.1250°W)
Time: 19:54:44
(UTC-04:00)

Courier 1B - Pass Details

Date: 28 January 2022
Orbit: 962 x 1209 km, 28.3° (Epoch: 20 May)

Event Time Altitude Azimuth Distance (km) Brightness Sun altitude
Rises 21:46:35 0° 256° (WSW) 4,085 11.3 -44.6°
Reaches altitude 10° 21:49:52 10° 245° (WSW) 3,135 10.5 -45.2°
Enters shadow 21:51:58 17° 233° (SW) 2,622 9.9 -45.5°
